Regional Weather Roundup
Issued by NWS

Home | Current Version | Previous Version | Graphics & Text | Print | Product List | Glossary On
Versions: 1 2 3 4 5 6 7 8 9 10 11 12 13 14 15 16 17 18 19 20 21 22 23 24 25 26 27 28 29 30 31 32 33 34 35 36 37 38 39 40 41 42 43 44 45 46 47 48 49 50
000
ASUS43 KLSX 250459
RWRMO

WEATHER SUMMARY FOR MISSOURI
NATIONAL WEATHER SERVICE SPRINGFIELD MO
1200 AM CDT SAT MAR 25 2017

NOTE: "FAIR" INDICATES FEW OR NO CLOUDS BELOW 12,000 FEET WITH NO
       SIGNIFICANT WEATHER AND/OR OBSTRUCTIONS TO VISIBILITY.
       CURRENT SKY AND/OR WEATHER CONDITIONS ARE NOT AVAILABLE FOR
       CHILLICOTHE AND FARMINGTON.

MOZ001>031-035>038-043-044-053-054-250600-
...NORTHERN AND WESTERN MISSOURI...

CITY           SKY/WX    TMP DP  RH WIND       PRES   REMARKS
KANSAS CTY INT CLOUDY    57  57 100 N6        29.82R
KANSAS C DTWN  CLOUDY    59  57  93 N5        29.80R
LEE`S SUMMIT   CLOUDY    57  57 100 E6        29.80S
ST JOSEPH      CLOUDY    50  50 100 N16       29.84S
CHILLICOTHE      N/A     58  56  93 NE6       29.84F
KIRKSVILLE     CLOUDY    55  54  96 E5        29.90R

$$
MOZ066>068-077>081-088>096-101>105-250600-
...SOUTHWEST MISSOURI...

CITY           SKY/WX    TMP DP  RH WIND       PRES   REMARKS
SPRINGFIELD    MOCLDY    56  51  84 SE16      29.80F
JOPLIN         CLOUDY    58  53  84 SE8       29.79S

$$
MOZ032>034-039>042-045>050-055>058-069>072-250600-
...CENTRAL MISSOURI...

CITY           SKY/WX    TMP DP  RH WIND       PRES   REMARKS
COLUMBIA       CLOUDY    57  56  96 SE6       29.86F
JEFFERSON CITY CLOUDY    60  54  80 SE6       29.88F
ROLLA          LGT RAIN  54  53  97 NW6       29.88F
SEDALIA        CLOUDY    58  49  72 NE6       29.82R
WARRENSBURG    CLOUDY    55  50  82 SW6       29.80S
OSAGE BEACH    MIX PCPN N/A N/A N/A S9        29.86F

$$
MOZ051-052-059>065-250600-
...EAST CENTRAL MISSOURI...

CITY           SKY/WX    TMP DP  RH WIND       PRES   REMARKS
ST LOUIS INTL  LGT RAIN  67  58  72 SE14      29.91F
SPIRIT OF STL  LGT RAIN  66  59  78 SE10      29.89F
ST CHARLES     LGT RAIN  66  59  78 SE17      29.90F

$$
MOZ072>076-082>087-097>100-106>115-250600-
...SOUTH CENTRAL AND SOUTHEAST MISSOURI...

CITY           SKY/WX    TMP DP  RH WIND       PRES   REMARKS
CAPE GIRARDEAU CLOUDY    66  55  67 SE16      29.94F
FARMINGTON     LGT RAIN  64  59  83 SE8G22    29.91F
POPLAR BLUFF   CLOUDY    67  58  72 SE18G26   29.90F
WEST PLAINS    LGT RAIN  55  53  93 W9        29.95S

$$




USA.gov is the U.S. government's official web portal to all federal, state and local government web resources and services.